Location: Blanot
(47.1713°N, 4.2340°E)
Time: 04:39:06
(UTC+00:00)

Cosmos 1763 Rocket - Pass Details

Date: 14 July 2020
Orbit: 732 x 781 km, 74.0° (Epoch: 06 August)

Event Time Altitude Azimuth Distance (km) Brightness Sun altitude
Rises 02:21:58 0° 339° (NNW) 3,239 7.2 -13.1°
Reaches altitude 10° 02:24:22 10° 342° (NNW) 2,316 6.5 -12.8°
Maximum altitude 02:29:37 67° 65° (ENE) 840 3.9 -12.3°
Drops below altitude 10° 02:34:52 10° 149° (SSE) 2,324 5.8 -11.7°
Sets 02:37:17 0° 152° (SSE) 3,250 6.5 -11.5°
